sat.trackr.live / text

‹ back to catalog

SBSS (USA 216)

NORAD 37168 · 2010-048A

PAYLOAD ACTIVE UNKNOWN

§ Identity

Operator
Country
US
Launch date
2010-09-26
Launch site
AFWTR
Launch vehicle
Mass (kg)
RCS (m²)
3.84

External: N2YO · Heavens-Above · Gunter

§ Orbital elements

Epoch: 2026-09-20T04:45:44.108352Z

Period
94.91 min
Inclination
97.7171°
Eccentricity
0.0078370
Mean motion
15.17173317 rev/d
Perigee alt
460.4 km
Apogee alt
568.4 km
Semi-major
6,892.5 km
B*
1.1343e-4
RAAN
150.4710°
Arg perigee
234.8924°
Mean anomaly
221.9584°
Rev number
86,687

§ Raw data

SBSS (USA 216)1 37168U 10048A   26263.19842718  .00002357  00000+0  11343-3 0  99982 37168  97.7171 150.4710 0078370 234.8924 221.9584 15.17173317866876

JSON: /api/v1/satellites/37168 · /tle

For live sub-satellite position, see the globe view (requires WebGL).

§ Visibility from observer

Set your observer location to see the next 7 days of passes ≥ 10°. The values pass through the URL so the page stays shareable.

No JS? Fill the form by hand. The geolocation button needs JavaScript.